Content
SEND FEEDBACK

Daily
Averages
Monthly
Summary
United States of America

HASTINGS, FLORIDA


Home > North America > United States > Florida
Elevation: 0 feet     Latitude: 29 45N     Longitude: 081 31W

WEATHER
 
SELECT A DAY
Number of Records: 338,786;   Date Range: 7/1/96 - 7/7/14
 
SHARE

PRINT THIS DATA

[ ← Previous Day ]
WEATHER ALMANAC - FEBRUARY 13, 2013
[ Next Day → ]
[ °C ]   °F
Weather ElementAverageHighLow
Temperature72 °F77 °F (2:58 pm)66 °F (10:58 pm)
Dewpoint65.8 °F71.6 °F (12:12 pm)51.1 °F (11:58 pm)
Humidity81.3 %94 % (11:21 am)59 % (9:58 pm)
Barometer29.87 in29.95 in (9:58 pm)29.82 in (2:58 pm)
Wind Speed10.1 mph17.3 mph (3:58 pm)
Wind Gust25.3 mph (3:58 pm)
Weather ElementAverage
Visibility7.1 mi
Wind DirectionWSW (235.1 °)

Weather ElementTotal
Precipitation1.02 in
Cooling Degree Days6.5 (Base 65)
Growing Degree Days21.5 (Base 50)
Averaged from 39 records on February 13, 2013
WEATHER CONDITIONS BREAKOUT
WIND DIRECTION BREAKOUT
WEATHER BY HOUR - FEBRUARY 13, 2013
[ °C ]   °F
Local TimeTemperatureDewpointHumidityBarometerVisibilityWind DirectionWind SpeedGust SpeedPrecipitationEventsConditions
1:58 AM69.1 °F64.9 °F87 %29.89 in10.0 miSSW (200°)11.5 mphClear
2:58 AM70.0 °F66.0 °F87 %29.88 in10.0 miSSW (210°)11.5 mphMostly Cloudy
3:58 AM71.1 °F66.9 °F87 %29.86 in10.0 miSSW (200°)10.4 mphMostly Cloudy
4:58 AM71.1 °F66.9 °F87 %29.86 in10.0 miSSW (210°)9.2 mphOvercast
5:38 AM71.6 °F66.2 °F83 %29.86 in10.0 miSW (220°)9.2 mphScattered Clouds
5:58 AM71.1 °F66.9 °F87 %29.86 in10.0 miSSW (210°)10.4 mphScattered Clouds
6:58 AM71.1 °F68.0 °F90 %29.85 in10.0 miSSW (200°)12.7 mphPartly Cloudy
7:32 AM71.6 °F68.0 °F88 %29.87 in10.0 miSW (220°)9.2 mphMostly Cloudy
7:58 AM72.0 °F68.0 °F87 %29.88 in10.0 miSSW (210°)11.5 mphOvercast
8:53 AM75.2 °F69.8 °F83 %29.88 in10.0 miSSW (210°)15.0 mph21.9 mphOvercast
8:58 AM75.0 °F69.1 °F82 %29.88 in10.0 miSSW (210°)11.5 mph21.9 mphOvercast
9:03 AM75.2 °F69.8 °F83 %29.88 in10.0 miSSW (210°)10.4 mphOvercast
9:58 AM75.9 °F68.0 °F76 %29.88 in10.0 miSW (220°)15.0 mph23.0 mphOvercast
10:58 AM75.9 °F68.0 °F76 %29.89 in10.0 miSSW (210°)10.4 mph19.6 mph0.00 inRainLight Rain
11:03 AM75.2 °F69.8 °F83 %29.89 in2.0 miSW (220°)15.0 mph20.7 mph0.00 inRainLight Rain
11:21 AM71.6 °F69.8 °F94 %29.90 in1.0 miSW (230°)15.0 mph19.6 mph0.11 inRainHeavy Rain
11:41 AM71.6 °F69.8 °F94 %29.88 in2.0 miWSW (250°)10.4 mph20.7 mph0.29 inRainLight Rain
11:51 AM71.6 °F69.8 °F94 %29.89 in3.0 miSW (230°)10.4 mph16.1 mph0.29 inRainLight Rain
11:58 AM72.0 °F69.1 °F91 %29.88 in3.0 miSW (220°)8.1 mph16.1 mph0.30 inRain-ThunderstormLight Thunderstorms and Rain
12:12 PM73.4 °F71.6 °F94 %29.87 in3.0 miSSW (210°)9.2 mph0.00 inRain-ThunderstormLight Thunderstorms and Rain
12:15 PM73.4 °F71.6 °F94 %29.88 in3.0 miSW (220°)9.2 mph0.00 inRainLight Rain
12:22 PM73.4 °F69.8 °F88 %29.87 in3.0 miSW (230°)13.8 mph0.00 inOvercast
12:58 PM73.9 °F70.0 °F87 %29.86 in3.0 miWSW (250°)11.5 mph0.00 inOvercast
1:58 PM75.0 °F70.0 °F84 %29.83 in5.0 miWSW (250°)12.7 mph20.7 mph0.00 inRainLight Rain
2:58 PM77.0 °F71.1 °F82 %29.82 in7.0 miWest (270°)9.2 mph16.1 mph0.01 inMostly Cloudy
3:22 PM75.2 °F69.8 °F83 %29.83 in5.0 miWest (280°)11.5 mph17.3 mphHaze
3:58 PM75.9 °F66.0 °F71 %29.82 in5.0 miNW (310°)17.3 mph25.3 mph0.00 inRainLight Rain
4:02 PM75.2 °F62.6 °F65 %29.83 in10.0 miWNW (290°)10.4 mph25.3 mph0.00 inRainLight Rain
4:25 PM73.4 °F60.8 °F65 %29.83 in7.0 miWSW (250°)6.9 mph0.00 inOvercast
4:52 PM73.4 °F60.8 °F65 %29.85 in7.0 miWest (260°)9.2 mph0.00 inOvercast
4:58 PM73.0 °F61.0 °F66 %29.85 in7.0 miWSW (250°)8.1 mph0.00 inOvercast
5:34 PM69.8 °F60.8 °F73 %29.88 in2.0 miWest (270°)10.4 mph0.01 inRainLight Rain
5:57 PM68.0 °F62.1 °F81 %29.88 in3.0 miWest (270°)5.8 mph0.01 inHaze
6:58 PM68.0 °F63.0 °F84 %29.89 in4.0 miSW (230°)8.1 mphHaze
7:58 PM68.0 °F64.0 °F87 %29.90 in10.0 miWSW (250°)3.5 mphOvercast
8:58 PM66.9 °F61.0 °F81 %29.93 in10.0 miWNW (290°)4.6 mph0.00 inOvercast
9:58 PM66.9 °F52.0 °F59 %29.95 in10.0 miWest (260°)4.6 mphOvercast
10:58 PM66.0 °F53.1 °F63 %29.95 in10.0 miSSW (200°)4.6 mphOvercast
11:58 PM66.0 °F51.1 °F59 %29.94 in10.0 miWSW (240°)5.8 mphOvercast
Hourly data recorded from KSGJ, located miles away from Hastings, Florida







STORIES FROM OUR PARTNERS